TIMESTAMP,CO2_1_1_1,H2O_1_1_1,TAU_1_1_1,TAU_SSITC_TEST_1_1_1,H_1_1_1,H_SSITC_TEST_1_1_1,LE_1_1_1,LE_SSITC_TEST_1_1_1,FC_1_1_1,FC_SSITC_TEST_1_1_1,WD_0_0_1,WS_0_0_1,WS_MAX_0_0_1,U_SIGMA_0_0_1,V_SIGMA_0_0_1,W_SIGMA_0_0_1,USTAR_0_0_1,MO_LENGTH_0_0_1,ZL_0_0_1,FETCH_MAX_0_0_1,FETCH_70_0_0_1,FETCH_80_0_0_1,FETCH_90_0_0_1,PA_0_0_1,RH_0_0_1,TA_0_0_1,VPD_0_0_1,T_SONIC_0_0_1,T_SONIC_SIGMA_0_0_1
[yyyymmddHHMMSS],[mmolCO2 mol-1],[mmolH2O mol-1],[kg m-1 s-2],[#],[W m-2],[#],[W m-2],[#],[umolCO2 m-2 s-1],[#],[Decimal degrees],[m s-1],[m s-1],[m s-1],[m s-1],[m s-1],[m s-1],[m],[#],[m],[m],[m],[m],[kPa],[%],[deg C],[hPa],[deg C],[deg C]
20191122003000,416.63212853471606,4.1964732304029502,1.6621280989775653,0,27.229788339575837,0,1.2457891638100629,2,0.91657547892472069,0,296.90712570163493,5.7597070427893637,14.869125696762154,2.3489645008991706,1.9228565867633727,1.4729662749081709,1.1706232984805025,-4893.7564296810015,-3.88249809180603441E-003,104.19200320962550,190.49621220224373,227.97531259461130,285.39803883373554,93.553745584607128,92.413793103448270,-4.8634482758620834,0.32236657348922793,-4.7766621076184492,0.14817975966784244
20191122010000,416.27764027382563,4.0096672666366855,1.1690611648474387,0,-17.974117559094477,2,-2.4650794016029742,2,0.10046160399907346,2,303.57344789879892,5.8682386010683150,15.888371153014521,2.4848468579394947,2.0323468978442167,1.2769280418574818,0.98067718258117720,4360.2850971309572,4.35751323061464319E-003,101.37774269545150,185.35084641997841,221.81762389799721,277.68934328349701,93.603287307291666,91.263333333333335,-5.2920000000000300,0.35938947544580740,-5.3700283779568281,0.30401206476634512
20191122033000,415.89303884522258,3.8598098867213326,1.0997559319172860,0,-41.452545209816762,1,3.4720452029709494,1,0.51387977634433268,0,295.80468987396239,4.0837560135572915,11.826034960714393,1.9341765063899041,1.5161845837260757,1.1095570854417114,0.94931480253834366,1716.9026375049925,1.10664399861432165E-002,110.52572724520293,202.07627977695321,241.83369589101167,302.74709022524291,93.752821277994798,92.099999999999994,-5.8913333333333640,0.31048040788971093,-5.6957478646171467,0.67200167607585604
20191122040000,415.54451047714127,3.8506471895735972,1.0092440410913819,0,-43.010206078945849,1,-3.0015007765446438,2,6.47862373767778971E-002,2,302.10819215233425,4.0382250489755851,12.086340730833337,2.0307074344048304,1.5117158637524279,1.0100709552377876,0.90930873778621102,1454.6314733889010,1.30617275561452674E-002,115.11780094557089,210.47205506801532,251.88129460348335,315.32549152182071,93.790538818359380,91.579999999999998,-5.8430000000000177,0.33213962517833412,-5.1153662406072726,0.32125054587412666
20191122043000,415.23036702615371,3.7261421089802673,0.69316052380198689,0,-2.6394153152322648,2,14.863497818128087,1,0.95352868887720255,0,307.68103836947733,3.7312313851449090,10.919704266269806,1.6206833040764044,1.3492584953732958,0.95659047103277473,0.75316253797807187,13472.850583345346,1.41024350284765418E-003,103.41535513649282,189.07625182535870,226.27598268642052,283.27067943850329,93.826889724175345,89.886666666666670,-6.0240000000000009,0.39346151495893483,-5.5197238337198655,0.13362195030966548
20191122050000,415.36147284269015,3.6467571578274041,0.34784951187577690,0,-13.620213588189463,1,-0.14072431553732792,2,0.61345975624428550,1,293.89554814298185,3.8555579485809632,9.9633705948340001,1.3717734364374019,1.1719137357055627,0.86064419316073038,0.53326420857345713,926.96011898326503,2.04971061978805776E-002,85.378777920510998,156.09963620328367,186.81139613194651,233.86570011050338,93.864053291061751,89.109999999999999,-6.1870000000000118,0.41843120361766750,-5.7117419574352652,0.14089931207210155
20191122053000,415.94071811017210,3.6490699078516715,0.72088102162679346,0,6.5611991078647831,2,2.9582459989592258,0,-0.35724088542093252,2,296.35008909265400,3.9447796363126084,9.4252974249657306,1.5445504559718195,1.2469820274985337,0.88051842544740966,0.76739342898734531,-5735.9111270621970,-3.31246415418771792E-003,112.17048613304866,205.08342359287747,245.43247900342575,307.25233963484601,93.898568781684020,89.879999999999995,-6.2863333333333458,0.38590027165407492,-5.9634446250067867,0.11010552249751483
20191122060000,416.26627591270682,3.6457972562987377,0.60518300674746206,0,-10.560487706229095,0,6.5612340111826413,0,0.56672694203334384,0,299.88594414487613,3.9496703617948579,9.4707710059055294,1.5303068437889054,1.3149498509786779,0.88830666720746987,0.70293366704382010,2739.8678539195098,6.93464101665326911E-003,103.83315202276277,189.84011778294274,227.19013514356084,284.41508983756614,93.940812329577824,89.986666666666665,-6.3076666666666483,0.38120958620100115,-6.2444196083781662,0.11526009808641868
20191122063000,416.29768032291707,3.6056945030952736,0.80990836629162566,0,-10.866395017109252,0,5.8594452225788292,1,0.61353559926634416,0,304.98893754386222,4.0080599625625926,10.454770980329053,1.6989365333565596,1.3195974865836080,0.94759280382782951,0.81294161096076112,4119.7629709041757,4.61191581510574534E-003,110.76561920870725,202.51487879585673,242.35858689688669,303.40419147876582,93.974790434397221,89.430000000000007,-6.3663333333333298,0.40059777199057239,-6.4515056457078117,9.19095131715315927E-002
20191122070000,416.15569127307515,3.5452919872384445,0.79730300569196799,0,-16.046317048824047,0,1.1166568134590056,2,0.85186598443727335,0,301.06996549570783,3.8258097986821173,9.6133077982063924,1.7369051791095227,1.2983226909857313,1.0079281591371978,0.80635206815570515,2723.1424542397590,6.97723322201459269E-003,104.74444509111332,191.50625215390471,229.18407244894632,286.91126273470070,94.004025647135421,88.423333333333332,-6.4350000000000023,0.43644707435851787,-6.4507978422376482,9.86982724539565426E-002
20191122073000,416.08147127839919,3.5907907853524348,0.51340569473093345,0,-7.0887797259082337,0,-0.62868477489670682,2,0.32727720070816296,1,300.16635918383662,3.5582599153301819,10.069504049276665,1.4730003003307128,1.1298084680387388,0.84750484538104154,0.64693279127042125,3184.1756310883093,5.96700754019213742E-003,100.88543707303971,184.45075472938456,220.74044403098182,276.34084191280675,94.039273720703136,89.646666666666661,-6.4429999999999836,0.39008737833079921,-6.6313182601928702,8.55198685109297696E-002
20191122080000,415.69813039513122,3.4646226810793603,0.69821012272198446,0,-14.721457072484210,0,7.9369108600553737,1,0.86255811037465591,0,302.11948540198085,4.6777771120701752,10.662647922225336,1.7849234937054563,1.4086714046175208,1.0295182545262542,0.75419815545225344,2430.2139133146120,7.81824179999264339E-003,97.619376910833807,178.47935509640971,213.59420378705769,267.39459713113001,94.086823930057378,86.673333333333332,-6.4630000000000223,0.50134566913673273,-6.6924688627094611,9.52404307332621464E-002
20191122083000,415.68608103543141,3.4261422228295073,0.68803568480195898,0,-25.407495330107324,0,10.160404628256430,0,0.76552753192788603,0,299.66423832812001,3.4234228207754032,10.155403429628860,1.6614717205423868,1.2710693980016319,0.87835367559954491,0.74834449223174349,1375.9972026401658,1.38081676064051202E-002,110.15408686769302,201.39680263824602,241.02053529686185,301.72910965451371,94.128999327436603,86.526666666666671,-6.5806666666666729,0.50230834025025162,-6.8665812385288518,8.50969349966082117E-002
20191122090000,415.70158726856937,3.3778816021414069,0.51991238518878380,0,-18.644478143562530,0,9.9036839952362907,1,0.53934417088622322,0,294.79333560290769,3.2033128961190318,8.9746243252764781,1.3982345982569189,0.99792482030235707,0.76934318621499775,0.65040868410999830,1231.1475242942270,1.54327565341058730E-002,109.47321570390673,200.15195299812467,239.53076821667102,299.86409805230755,94.138177095993171,85.716666666666669,-6.6416666666666515,0.53001844581775004,-6.9405454688074997,6.91081060970888533E-002
20191122093000,415.75461348870681,3.3916200361620126,0.29121570072313102,0,-13.714662260952037,0,2.9393264743831233,1,0.35744289869922663,0,297.08067662388157,3.2089438641788277,7.9952711427923662,1.1061558213932821,1.0995457178100223,0.73945993297958357,0.48674642992362749,701.51159396504033,2.70843706126214952E-002,89.611841491533838,163.83902647749485,196.07346962232012,245.46071704282821,94.141049961760032,86.233333333333334,-6.6666666666666856,0.50986632847441338,-6.9561831580432454,6.33363646602376762E-002
20191122100000,415.99712275992778,3.4827269564509340,0.17286085985189145,0,-5.2085166106717873,0,-2.0566709883327334,2,-7.71723295542753596E-002,2,288.49180754652571,2.3303211709713256,5.9898343874541098,0.86284912980012629,0.82142038454293109,0.52842052487916991,0.37498149076187748,844.57076958011851,2.24966346034517865E-002,95.165387946579330,173.99268061011480,208.22480033961580,260.67274117152454,94.141911370293158,88.879999999999995,-6.7150000000000318,0.41031714057358160,-7.0092748450692284,4.32276913627268958E-002
20191122103000,415.89562953275890,3.4214778416922988,0.38484209220605814,0,-11.757337854141079,0,-1.6799612132054873,2,0.27410200060112011,2,290.68544731121847,2.9245083410027215,7.9561960997867311,1.1830827350856936,0.94143229622035995,0.68808841682766220,0.55949002479856136,1242.7716172595042,1.52884083737749171E-002,106.11416974950519,194.01054568071888,232.18107219505148,290.66315077989702,94.144015545355899,87.323333333333338,-6.7156666666666638,0.46773265855140778,-7.0133214747110628,5.57296083970520856E-002
20191122110000,415.77140901076029,3.4096872284500930,0.26242769806704880,0,-9.5347446832650888,0,3.6820403729558233,2,0.41874055061704640,1,288.27798013511739,2.9690078694237014,7.6973703789811196,1.0923448386001549,0.88960413863155319,0.61259669286366636,0.46189731398156192,862.35353051412562,2.20327270982150561E-002,99.896789467402584,182.64319159329838,218.57725261515333,273.63278295382094,94.154967384548613,87.726666666666674,-6.8190000000000168,0.44926766356344788,-7.1275927140977160,5.71946444684137342E-002
20191122113000,416.02249701607542,3.5261136518493985,0.48600231176317860,0,-6.3316791679607487,0,6.2712000300657724,1,0.49015142626914321,0,294.07240607132064,3.1385352662822705,9.1245862752847824,1.3489714431844757,1.0216045173545127,0.74584635747080319,0.62854762922780993,3273.0357524282590,5.80500838889521330E-003,109.19580529175586,199.64475828919981,238.92378568942411,299.10422795536135,94.181910236363734,90.483333333333334,-6.7810000000000059,0.34937879831558349,-7.0856579015179477,4.58333668470043004E-002
20191122120000,415.89875292665351,3.4162352214279812,0.66141212013801498,0,-13.772178067477919,0,20.455159858941499,1,1.3662589807989385,1,292.29028775534249,3.7186904674189081,9.7338748769960244,1.6253061173478704,1.3159265436577428,0.85934186827154746,0.73329835742348215,2389.3379345843846,7.95199361504506964E-003,110.29268061579513,201.65019621198550,241.32378268700626,302.10873940233012,94.179021936197913,87.429999999999993,-6.7466666666666697,0.46269331030215372,-7.0692723846435115,5.58834971575829717E-002
20191122123000,415.98565860584904,3.4250761130789558,0.49879483905136751,0,-10.482448935991638,0,11.384466881347706,1,0.87897555385075654,1,289.06929833906793,3.0552703832300776,7.8107179862270080,1.3615278935580917,0.94755063068459089,0.69014356090846141,0.63672796917096131,2055.0988873135962,9.24529720554547255E-003,117.39956544211974,214.64384829916762,256.87386561031428,321.57559798234536,94.177593651676318,88.116666666666660,-6.8149999999999977,0.43512547981911665,-7.1462404114064384,4.89210396181301993E-002
20191122130000,416.42982432812329,3.5220775362446846,0.32637486820199108,0,-2.2764913076598532,2,3.8687952830577403,0,0.70289717332849633,1,273.06977400543531,2.2459756088449607,6.2879059830462261,1.0223560785336865,0.87827693991864664,0.62036985904468867,0.51486089161171722,5004.6829420317345,3.79644429428862727E-003,107.86642170762981,197.21422111226934,236.01505345649511,295.46284036245743,94.217934920789943,91.306666666666672,-6.9086666666666474,0.31603327877135484,-7.2475435816446634,6.44639813400128131E-002
20191122133000,416.52960078477645,3.4906865484403573,0.37743299703194261,0,0.43987071437962721,2,7.3867544495014315,1,0.98426176130157772,1,276.01499389883645,2.7225427970790861,6.9490771560543898,1.1928760811198518,0.92691694964293636,0.65731621141272323,0.55347672802255654,-32183.216187058606,-5.90369834064011527E-004,109.12265322788700,199.51101298579340,238.76372672027375,298.90385311927332,94.244121987630209,91.283333333333331,-7.0180000000000291,0.31422486794117505,-7.3619317347208266,4.19045231763545759E-002
20191122140000,416.34729500478755,3.4567034654905653,0.37700741778970692,0,2.5537914441711722,0,4.7239593303408016,1,0.48062085165185015,0,274.46191955287833,2.8582869250989256,7.3755766749340612,1.3252577695442247,1.0165518537803058,0.67073114868364869,0.55302487854605475,-5530.6548176756305,-3.43539790971535142E-003,107.30299765190594,196.18410224352002,234.78226426663232,293.91953458483619,94.266680119140631,90.886666666666670,-7.0853333333333239,0.32682396653526669,-7.4393619185553348,4.17369435369167041E-002
20191122143000,416.20884263975739,3.3743286945783884,0.48987092751603306,0,5.2546631534530510,2,4.2218811745119087,1,0.52153863510222254,1,269.33222418111302,2.9239459427085777,7.2702565120342326,1.2234363300676903,1.0928044341533460,0.70201718323527507,0.63018155509258733,-3976.8570955002033,-4.77764212888072328E-003,114.85482803270071,209.99125671237979,251.30590176940109,314.60516797214729,94.256451891710071,90.076666666666668,-7.2833333333333030,0.35047756698674276,-7.6638247850205516,7.14420032100505642E-002
20191122150000,416.06114179008978,3.3214990511860871,0.44702635955462305,0,19.217302551926839,0,12.126721780776043,0,0.69746847793589339,0,256.91332380789612,2.6952003243134062,8.0114835450187769,1.2220147008639153,1.0757217175932161,0.68971193029179412,0.60186018415854814,-947.27421490246115,-2.00575500748285326E-002,112.28382538517434,205.29064389346368,245.68046877842420,307.56279340560678,94.255728800161833,89.450000000000003,-7.3973333333333358,0.36934351885167988,-7.7859403270895200,6.30831476656863732E-002
20191122153000,416.03731782142461,3.2937282972748991,0.48038859821478797,0,34.779296682090781,0,18.639765734368691,1,0.84742813657219740,0,244.19530070909352,2.5108328306793344,6.3226575157091860,1.1273617131750480,1.0007637867336809,0.69186472070823180,0.62387132608743812,-583.00522287538263,-3.25897594987090700E-002,115.26938378018029,210.74919683454681,252.21296251502670,315.74070038992687,94.264491045138882,88.776666666666671,-7.4069999999999823,0.39262269932324501,-7.8030552139281895,9.34688598029831813E-002
20191122160000,416.05276582494662,3.2725449166258755,0.45452475436563766,0,50.773283797746686,0,19.040627503508727,0,0.63093931842749595,0,230.45090715967129,2.6187933988722549,6.3375778301962455,1.2118711412186409,1.0102425212645454,0.64931670361415161,0.60689908118430258,-367.66411866396879,-5.16776020163264502E-002,118.62680227452306,216.88762863591342,259.55909760390472,324.93718979710064,94.273629200303830,87.700000000000003,-7.3313333333333617,0.43281055122718615,-7.7560960591633830,0.14196807418530105
20191122163000,416.25778006132310,3.2725739076818372,0.40540293410826023,0,59.374502953651202,0,24.758982296710673,0,0.17771902399330866,2,216.69756353811468,2.6813730263638536,6.5080044530271248,1.2397840593834588,1.1914302684243370,0.70398989687780655,0.57325014726141066,-264.89213981364554,-7.17273076255365849E-002,106.23731807912665,194.23570010341217,232.45052453377340,291.00047313359920,94.243082672270077,87.733333333333334,-7.3403333333333194,0.43133764195407537,-7.8035143768233866,0.19557767307155141
20191122170000,416.33914041106726,3.2701337220575946,0.41808960494073133,0,65.790301287856906,0,18.295529031314931,0,0.28216230004659532,1,214.52139650955974,2.6557688782633440,7.1955491468179442,1.2178296925385472,1.0490447653087844,0.74468326772959481,0.58214115996466576,-250.32043153796201,-7.59027135071017184E-002,102.82536710752908,187.99756554138219,224.98507070482174,281.65461082272998,94.223980001085067,88.073333333333338,-7.4026666666666756,0.41736697747313939,-7.9204181332058283,0.20373568463565422
20191122173000,416.49137864134434,3.3812823357100656,0.34871164040037589,0,97.973771037984221,0,32.498250688929474,0,0.40353464650685211,0,208.14832664850263,2.3321162887340758,7.0048259434001396,1.1281612086299708,1.0866194880522253,0.74886399926132274,0.53239465696342925,-128.52007538944869,-0.14783682582215379,95.305834441805686,174.24946159650079,208.53210159754082,261.05744588075282,94.162165634331615,87.176666666666662,-6.8450000000000273,0.46846270928560840,-7.4679403432210165,0.30049720001677860
20191122180000,416.45641120596127,3.4910995877090483,0.40593802726933437,0,68.165440379542090,0,21.480725935249573,0,0.79849769905374957,0,208.81112607163217,2.6559150745065638,7.5220578466165522,1.3097813654627510,1.2772160576884806,0.78611156620483302,0.57514289914322414,-232.82457806234450,-8.16065045972607095E-002,97.518757821210926,178.29539130976636,213.37404611945232,267.11898585614733,94.124551273437490,86.239999999999995,-6.2930000000000064,0.52443458183665881,-6.9615297292073137,0.27360615317450460
20191122183000,416.42537103163869,3.4900339072927742,0.51519091521906135,0,90.678409714968680,1,41.791076027549046,1,0.86924422113016675,0,210.33608284822620,3.2664496005340968,7.4940369880791469,1.3048266892687443,1.1157015529173662,0.83034588770089390,0.64832845474025702,-250.64544984548107,-7.58042885347138679E-002,102.72679409585173,187.81734263778637,224.76938991878939,281.38460407223056,94.097748411885263,84.556666666666672,-6.0430000000000064,0.59995482251563093,-6.6838303082914763,0.26482981520426652
20191122190000,416.34437379654338,3.6515715652496716,0.38359956387855632,0,77.286846007302614,0,32.341412252247871,0,0.73781355898440082,0,196.12734201611448,3.0917268439759966,7.7703201903993122,1.1885566471781965,1.0236949098021437,0.79070747314314638,0.56017688613879102,-189.63162652144442,-0.10019425740595750,95.039112732920302,173.76180924613232,207.94850628229790,260.32685379800807,94.051824449869784,84.723333333333329,-5.4816666666666833,0.61942551235385279,-6.1211688020493966,0.22681620478872561
20191122193000,416.47520612900598,3.7895052781648388,0.60845724245406985,0,72.495808969238681,0,35.870877551865327,0,1.0426315995136808,0,215.23104503677121,2.4715376701999450,7.8251984026594013,1.3646997172435993,1.0267401802944245,0.81062708497126501,0.70626651104066374,-405.09702883106939,-4.69023435072471045E-002,112.14318915852340,205.03351601752180,245.37275238229762,307.17756899261224,94.025591554253481,84.703333333333333,-4.9936666666666838,0.64363754774896220,-5.5851161821153141,0.17454146251457581
20191122200000,416.39546909449206,3.8330111275697494,0.46732301490969697,0,65.145693356689975,0,29.005066020551297,0,0.69335576852888259,0,207.23768467330885,2.7875237347086825,7.7359271475069100,1.2927934756269872,0.99487775161761549,0.74462461698409355,0.61932810360441715,-303.91841556261119,-6.25167776188466917E-002,108.05419151042481,197.55752419788567,236.42589956914634,295.97717094272349,93.998341595224275,84.126666666666665,-4.7563333333333162,0.68000359047987213,-5.3470957145343618,0.22855841875932190
20191122203000,416.39263736122200,3.8213990305108227,0.41736745938882985,0,46.059151444231681,0,15.780043666095514,1,0.62993862110903509,1,204.95706709120734,3.1778652861267167,8.2248472119775649,1.4500490159225519,1.0873804941401444,0.79653572716353394,0.58569825399092668,-363.47107199862211,-5.22737611428730903E-002,97.910627798134968,179.01185460810245,214.23146970028094,268.19237843376129,93.962930776536211,82.123666666666665,-4.4823333333333153,0.78181776634670774,-5.1148405234345660,0.14432023124892096
20191122210000,416.44171903664710,3.7264556966605391,0.38916468792027115,0,15.120089921362183,0,7.1893878940134792,1,0.45692903092304094,1,210.09018591995462,3.2280430997972633,8.5275463518232257,1.2859511343987242,1.1307195762263869,0.80179994603014304,0.56555282949577124,-996.73431254044863,-1.90622513552014990E-002,94.706682805565563,173.15402131584040,207.22113936094186,259.41627672496912,93.949914513020843,80.299999999999997,-4.5199999999999818,0.85913124093810156,-5.2105063900417576,8.84977203998889156E-002
20191122213000,416.72389257843241,4.0059350591156848,0.45749327595977179,0,-7.6481661147893778,2,18.671371790618860,0,1.3162348007934741,0,205.18764937949607,2.4467643076842944,8.1623218831000877,1.1884843481622509,0.95134191543948265,0.77710189493229020,0.61328947702914660,2512.9643691970973,7.56079164229080548E-003,103.61077825581052,189.43354761447864,226.70357449137924,283.80597363842219,93.953867630425350,85.901432916068671,-4.4546193644206369,0.61788779004415806,-5.3007615780300057,0.11015543228473669
20191122220000,416.89267837387291,4.0567642726789375,0.37186915571844376,0,-20.046969114934612,0,8.8968023316640181,0,1.0110396265301864,0,200.83515174754086,2.8856822187554330,7.3517833437156197,1.1397227363490521,0.92450497150975419,0.71394914169330836,0.55285224136331235,702.29917844133229,2.70539971898702651E-002,102.04890261011599,186.57794079946103,223.28614246596035,279.52775426983430,93.951865330772009,87.542978832516312,-4.5387081375223488,0.54249350283955955,-5.4361390120191118,8.87761456538082167E-002
20191122223000,417.09230342989741,4.0166920513194242,0.26197043498766914,0,-36.386467051985484,0,3.8945258901115358,0,1.0377532484350713,0,197.75124708391729,2.9004635249508857,7.0631230842713997,1.0293438947705327,0.89064353555726083,0.65290355350837603,0.46358745365128667,228.09341804715547,8.32992032942922872E-002,95.209659735748303,174.07362356047861,208.32166837808330,260.79400846090624,93.927448485460076,90.475704840584953,-5.1091112738714628,0.39726326882282648,-5.5892228503756769,0.14307222721964594
20191122230000,417.16224067764642,3.9585013028688469,0.19231641780724265,0,-44.108859565332061,0,1.1928726114154296,1,0.92085705180090149,0,192.97687891748876,2.8288523652678981,6.4838096442149080,0.86511348062824456,0.75822035241849484,0.57618470370501296,0.39689119595722533,118.04634309353446,0.16095373649097525,92.927165923562441,169.90049690773856,203.32750160617249,254.54190429186190,93.900986680555548,92.531914322869326,-5.6007404073079670,0.30007870150456711,-5.8045873506333692,0.18117134487590433
20191122233000,417.36127381567923,3.9059864206567827,0.25962844882194369,0,-53.012497301655571,0,0.97431893423010463,2,1.1116887876630870,0,193.69933648171610,2.8024180858057219,6.2443304507381061,0.92876624612750236,0.76254524950871061,0.60995965253904338,0.46103347304868264,153.87458409090172,0.12347718183774724,100.09214115260561,183.00035677807395,219.00468812006864,274.16788148463274,93.837065215060747,93.413054324811426,-5.9092269083658380,0.25852237333120287,-6.1108371946546640,0.18227237333071264
20191123000000,417.43355169564666,3.8668555115619636,0.26049221897601810,0,-48.483528254746382,0,-1.2974379431673482,1,0.95744704626207766,0,196.04547862412480,2.6920727329230698,5.6848510562869627,0.93334120829201406,0.80365046120163264,0.61029016573609496,0.46174373180310457,168.96848891010251,0.11244700193838333,100.17206099243755,183.14647573441232,219.17955519150348,274.38679430758759,93.792495349392368,93.768613254379119,-6.0970050591362792,0.24108474311381600,-6.3284345847234817,0.18231801668324948
